EW4210 Weather Reports


time (UTC)temp
C
wind
direction
speed
KPH
gust
KPH
rain 1hr
cm
rain 24hr
cm
rain mn
cm
humidity
%
barometer
mb
20260510094533 16 114 0.0 0.0 0.00 0.00 0.00 91 1012.9
20260510093032 16 114 0.0 0.0 0.00 0.00 0.00 91 1013.0
20260510091556 16 114 0.0 0.0 0.00 0.00 0.00 92 1012.7
20260510090050 16 114 0.0 0.0 0.00 0.00 0.00 92 1012.6
20260510084521 16 114 0.0 0.0 0.00 0.00 0.00 91 1012.7
20260510083006 16 114 0.0 0.0 0.00 0.00 0.00 90 1012.5
20260510081545 16 114 0.0 0.0 0.00 0.00 0.00 89 1012.4
20260510080025 16 114 0.0 0.0 0.00 0.00 0.00 89 1012.2
20260510074508 16 114 0.0 0.0 0.00 0.00 0.00 88 1012.1
20260510073044 17 114 0.0 0.0 0.00 0.00 0.00 88 1012.0
20260510071523 17 114 0.0 0.0 0.00 0.00 0.00 86 1012.0
20260510070100 17 114 0.0 0.0 0.00 0.00 0.00 85 1012.0
20260510070003 17 114 0.0 0.0 0.00 0.00 0.00 85 1012.1
20260510064547 17 114 0.0 0.0 0.00 0.00 0.00 84 1012.2
20260510063015 17 114 0.0 0.0 0.00 0.00 0.00 83 1012.0
20260510061559 18 114 0.0 0.0 0.00 0.00 0.00 81 1012.0
20260510060035 18 114 0.0 0.0 0.00 0.00 0.00 80 1012.3
20260510054521 18 114 0.0 0.0 0.00 0.00 0.00 78 1012.2
20260510053007 19 114 0.0 0.0 0.00 0.00 0.00 77 1012.1
20260510051541 19 114 0.0 3.2 0.00 0.00 0.00 75 1011.8
20260510050024 20 114 0.0 3.2 0.00 0.00 0.00 73 1011.5
20260510044627 20 110 1.6 4.8 0.00 0.00 0.00 72 1011.5
20260510043035 21 83 1.6 6.4 0.00 0.00 0.00 70 1011.5
20260510041518 21 82 1.6 6.4 0.00 0.00 0.00 69 1011.5
20260510040057 21 82 3.2 6.4 0.00 0.00 0.00 68 1011.4
20260510040002 21 104 1.6 6.4 0.00 0.00 0.00 68 1011.4
20260510034543 21 89 1.6 4.8 0.00 0.00 0.00 68 1011.3
20260510033024 21 105 1.6 4.8 0.00 0.00 0.00 67 1011.4
20260510031507 21 117 0.0 4.8 0.00 0.00 0.00 67 1011.1
20260510030047 21 117 1.6 4.8 0.00 0.00 0.00 66 1010.9
20260510024536 22 99 1.6 4.8 0.00 0.00 0.00 65 1010.7
20260510023009 22 144 0.0 1.6 0.00 0.00 0.00 65 1010.6
20260510021553 22 89 0.0 6.4 0.00 0.00 0.00 64 1010.4
20260510020037 22 103 3.2 4.8 0.00 0.00 0.00 63 1010.3
20260510014527 23 86 1.6 6.4 0.00 0.00 0.00 63 1010.0
20260510013015 23 123 1.6 6.4 0.00 0.00 0.00 61 1009.9
20260510011600 23 109 1.6 4.8 0.00 0.00 0.00 61 1009.9
20260510011501 23 109 0.0 4.8 0.00 0.00 0.00 61 1009.9
20260510010107 24 83 1.6 6.4 0.00 0.00 0.00 60 1009.6
20260510004532 24 112 0.0 4.8 0.00 0.00 0.00 59 1009.6
20260510003023 25 111 1.6 6.4 0.00 0.00 0.00 57 1009.5
20260510001505 25 117 1.6 12.9 0.00 0.00 0.00 55 1009.4
20260510000046 26 90 1.6 11.3 0.00 0.00 0.00 55 1009.2
20260509234533 26 89 3.2 11.3 0.00 0.00 0.00 54 1009.0
20260509233022 26 94 1.6 4.8 0.00 0.00 0.00 44 1009.1
20260509231504 26 71 0.0 6.4 0.00 0.00 0.00 44 1009.0
20260509230045 26 37 0.0 4.8 0.00 0.00 0.00 43 1008.9
20260509224532 27 105 0.0 8.0 0.00 0.00 0.00 41 1008.8
20260509223015 27 146 0.0 6.4 0.00 0.00 0.00 38 1008.8
20260509221553 27 99 0.0 4.8 0.00 0.00 0.00 39 1008.8
20260509220041 27 58 1.6 4.8 0.00 0.00 0.00 42 1008.7
20260509214519 27 136 1.6 9.7 0.00 0.00 0.00 39 1008.6
20260509213058 27 68 1.6 12.9 0.00 0.00 0.00 39 1008.6
20260509211544 27 76 0.0 3.2 0.00 0.00 0.00 42 1008.8
20260509210026 27 69 1.6 9.7 0.00 0.00 0.00 39 1008.9
20260509204506 27 220 1.6 11.3 0.00 0.00 0.00 37 1009.0
20260509203058 27 168 1.6 9.7 0.00 0.00 0.00 42 1009.2
20260509201520 27 94 1.6 9.7 0.00 0.00 0.00 43 1009.6
20260509200109 27 67 1.6 4.8 0.00 0.00 0.00 42 1009.6
20260509200002 27 333 1.6 4.8 0.00 0.00 0.00 43 1009.7
20260509194545 27 83 3.2 6.4 0.00 0.00 0.00 44 1009.7
20260509193021 27 348 0.0 4.8 0.00 0.00 0.00 40 1009.7
20260509191615 27 63 1.6 4.8 0.00 0.00 0.00 43 1009.8
20260509191502 27 89 3.2 6.4 0.00 0.00 0.00 43 1009.8
20260509190040 27 102 3.2 11.3 0.00 0.00 0.00 48 1009.9
20260509184526 26 9 3.2 6.4 0.00 0.00 0.00 50 1009.9
20260509183056 27 123 3.2 6.4 0.00 0.00 0.00 51 1010.0
20260509181539 26 95 1.6 6.4 0.00 0.00 0.00 53 1010.1
20260509180020 26 92 1.6 4.8 0.00 0.00 0.00 58 1010.2
20260509174506 26 299 1.6 4.8 0.00 0.00 0.00 55 1010.2
20260509173043 26 284 0.0 4.8 0.00 0.00 0.00 61 1010.4
20260509171528 25 124 3.2 6.4 0.00 0.00 0.00 61 1010.5
20260509170006 25 148 3.2 6.4 0.00 0.00 0.00 62 1010.4
20260509164554 24 336 3.2 4.8 0.00 0.00 0.00 63 1010.4
20260509163025 23 296 0.0 6.4 0.00 0.00 0.00 69 1010.4
20260509161506 23 305 1.6 6.4 0.00 0.00 0.00 71 1010.4
20260509160042 23 286 1.6 4.8 0.00 0.00 0.00 70 1010.4
20260509154524 22 326 1.6 4.8 0.00 0.00 0.00 72 1010.4
20260509153057 22 341 1.6 4.8 0.00 0.00 0.00 74 1010.5
20260509153011 22 341 1.6 4.8 0.00 0.00 0.00 75 1010.5
20260509151539 21 290 1.6 8.0 0.00 0.00 0.00 75 1010.5
20260509150022 21 288 1.6 4.8 0.00 0.00 0.00 73 1010.4
20260509144559 21 198 0.0 4.8 0.00 0.00 0.00 76 1010.6
20260509143039 21 288 1.6 3.2 0.00 0.00 0.00 76 1010.7
20260509141515 20 192 0.0 4.8 0.00 0.00 0.00 80 1010.7
20260509140047 19 138 0.0 3.2 0.00 0.00 0.00 83 1010.7
20260509134520 18 285 0.0 6.4 0.00 0.00 0.00 85 1010.7
20260509133008 17 281 1.6 4.8 0.00 0.00 0.00 88 1010.8
20260509131548 17 244 0.0 3.2 0.00 0.00 0.00 91 1010.7
20260509130037 16 238 0.0 1.6 0.00 0.00 0.00 94 1010.6
20260509124503 15 249 0.0 0.0 0.00 0.00 0.00 96 1010.5
20260509123039 15 249 0.0 0.0 0.00 0.00 0.00 96 1010.2
20260509121525 15 249 0.0 0.0 0.00 0.00 0.00 96 1010.0
20260509120059 14 249 0.0 0.0 0.00 0.00 0.00 96 1009.6
20260509114540 14 249 0.0 0.0 0.00 0.00 0.00 96 1009.4
20260509113017 13 249 0.0 0.0 0.00 0.00 0.00 96 1009.2
20260509111551 13 249 0.0 0.0 0.00 0.00 0.00 95 1009.0
20260509110030 13 249 0.0 0.0 0.00 0.00 0.00 94 1008.8
20260509104515 13 249 0.0 0.0 0.00 0.00 0.00 94 1008.6
20260509103101 14 249 0.0 0.0 0.00 0.00 0.00 94 1008.5
20260509101539 14 249 0.0 0.0 0.00 0.00 0.00 94 1008.6
20260509100023 14 249 0.0 0.0 0.00 0.00 0.00 94 1008.5